Theta_e
332 332 332 337 342 347 349 349 350 351 351 348 348 350 352 354 355 356 354 354 355 355 354 350 348 350 352 349 350 350 350 349 348 346 344 346 346 345 347 346 346 345 345 344 344 344 345 345 344 344 343 340 337 335 334 332 328 326 325 325 326 325 328 332 336 341 343 344 343 342 343 344 344 343 344 344 344 343 344 344 343 343 344 343 343 343 344 344 344 344 344 344 344 343 343 342 341
333 330 335 344 347 349 351 350 350 350 350 346 348 352 353 355 356 356 355 355 356 355 353 351 350 351 351 350 350 350 349 349 348 348 347 346 346 346 346 346 345 343 343 343 342 342 343 345 344 344 341 336 333 332 331 327 325 324 325 325 325 326 332 337 340 343 343 343 342 342 342 343 344 343 344 344 344 344 344 344 344 343 344 343 342 343 344 343 342 343 344 344 343 344 344 342 340
331 331 339 347 349 349 351 351 350 348 347 345 347 353 354 356 357 355 354 355 355 354 352 352 352 352 351 350 351 350 349 348 348 348 347 346 347 346 346 345 344 342 342 341 341 340 340 342 342 343 340 334 332 330 328 325 324 324 325 325 326 330 335 338 342 343 343 342 341 341 342 343 344 344 344 344 344 345 344 344 343 343 343 342 341 342 344 343 342 342 343 343 343 343 344 343 342
333 339 345 349 351 350 351 351 351 347 345 345 347 353 354 356 357 355 355 354 354 353 352 353 352 353 353 351 350 350 348 348 348 348 347 347 346 345 345 345 344 342 342 341 341 341 340 340 341 343 341 335 331 328 325 324 324 324 325 326 328 333 336 340 343 343 343 343 341 341 343 344 345 345 344 343 344 343 343 342 343 343 342 341 339 340 343 343 342 342 342 342 343 342 343 343 343
342 348 348 349 351 350 351 352 353 348 346 347 348 353 355 355 356 354 355 354 354 353 353 354 352 352 352 351 351 350 349 348 349 348 347 347 345 345 344 344 345 345 343 342 342 342 342 341 342 345 343 335 328 325 323 324 324 325 325 327 332 336 339 343 344 343 344 343 342 343 343 344 345 344 343 343 343 343 342 342 342 342 342 341 340 340 341 341 341 342 343 342 342 341 341 341 342
348 350 347 349 351 350 352 350 350 349 350 352 351 354 354 353 355 354 355 354 354 354 354 353 352 352 351 351 351 350 348 349 349 348 347 345 344 343 343 343 345 346 345 344 343 342 343 343 345 344 338 330 325 324 324 324 325 325 328 333 337 339 341 343 344 344 344 343 343 343 344 344 343 341 341 342 343 342 343 342 343 343 343 342 341 342 341 341 340 341 342 343 341 340 340 341 341
348 350 349 350 350 351 352 350 349 350 351 353 352 354 353 352 355 355 355 354 354 353 353 353 352 352 351 350 350 349 350 349 348 348 347 344 343 342 341 342 343 344 345 344 342 342 342 343 344 338 330 325 324 324 324 324 326 329 335 339 340 340 342 343 344 344 344 343 343 343 344 344 342 340 341 343 343 342 343 342 342 343 343 343 343 343 342 341 341 340 341 342 341 340 341 341 341
348 350 350 351 351 352 352 351 350 351 352 352 352 353 354 353 355 355 354 354 354 353 352 352 353 352 351 351 350 350 350 348 349 349 347 344 343 343 341 341 341 342 343 342 341 340 341 340 337 329 324 324 323 326 328 330 333 336 340 340 340 342 343 343 344 344 344 343 343 343 344 344 341 340 341 343 343 342 343 342 342 342 343 343 342 342 342 342 342 342 343 342 341 341 340 340 341
348 350 351 351 353 352 351 350 351 353 353 351 351 354 354 354 355 354 353 355 354 353 353 352 352 353 351 351 352 350 349 348 350 349 347 345 344 343 342 342 341 341 340 339 340 340 340 337 331 327 324 325 328 331 334 337 339 340 340 340 341 343 343 343 344 344 343 343 344 343 344 343 340 340 341 342 342 342 342 342 342 342 342 342 341 342 342 343 342 342 343 343 342 342 341 341 342
349 351 351 351 352 350 348 349 352 354 354 351 351 355 355 354 355 355 354 354 354 353 353 352 352 352 351 351 351 350 348 347 349 349 348 346 345 344 342 343 342 341 340 339 340 341 340 336 332 327 326 330 334 336 338 340 341 340 340 340 341 343 344 344 344 343 343 343 344 344 344 343 341 341 342 343 343 343 342 342 343 343 343 342 342 343 343 342 341 341 342 342 342 342 342 341 342
351 352 351 352 350 347 346 347 352 354 353 353 354 355 355 355 356 355 355 354 353 353 352 352 352 352 351 352 351 349 348 347 349 349 348 346 345 344 343 343 342 341 342 341 342 341 339 337 332 327 329 335 338 338 340 342 342 340 340 341 342 343 343 344 344 343 343 344 343 343 343 343 342 343 343 343 342 342 342 342 342 342 342 342 342 342 342 342 341 342 342 342 342 342 342 342 342
353 352 352 352 349 347 348 349 353 355 354 355 355 355 355 356 356 355 354 354 353 353 353 352 352 351 351 352 350 349 348 348 349 349 349 347 346 345 343 343 342 342 343 342 340 340 337 335 332 329 332 338 339 341 342 343 342 342 343 343 343 343 343 344 343 343 342 343 343 343 342 343 343 343 343 342 342 342 342 341 342 341 341 341 341 341 342 343 342 342 342 342 342 342 343 342 341
352 352 352 352 349 349 350 350 355 356 356 356 355 354 355 355 356 355 355 354 353 353 352 352 352 351 351 351 349 348 348 349 349 349 348 347 346 345 343 343 343 342 343 340 337 339 337 334 334 332 334 338 340 342 343 344 343 344 344 344 343 343 343 343 343 342 342 342 342 342 342 342 343 343 343 342 341 341 342 341 341 341 341 341 340 341 342 343 342 342 343 342 342 342 342 342 342
352 351 350 351 350 350 351 351 355 354 355 356 355 355 355 356 355 355 355 353 354 355 352 352 351 352 351 350 349 348 348 349 349 348 348 347 346 345 344 344 344 343 343 338 334 339 340 339 338 335 337 339 341 343 344 345 344 344 344 343 343 342 342 342 342 341 341 342 342 342 342 342 342 342 343 342 341 340 340 341 342 342 340 341 340 341 342 342 342 342 343 343 342 342 342 342 343
351 351 351 352 350 349 350 351 354 352 353 356 355 355 356 355 355 356 356 354 355 354 352 351 351 352 351 350 349 348 349 349 349 349 348 348 347 346 345 345 344 344 344 340 338 341 342 343 341 338 339 340 342 344 345 345 344 344 343 343 343 343 343 342 341 341 342 342 342 343 342 342 342 342 342 342 341 340 341 341 343 342 340 339 339 340 341 342 343 343 343 343 342 342 343 342 342
351 352 352 352 349 347 348 351 353 351 353 356 355 355 355 355 355 356 356 355 354 353 352 351 350 351 352 350 349 348 349 349 349 349 348 348 347 347 345 345 344 345 345 344 343 344 343 343 342 337 338 342 343 345 345 345 344 344 344 343 343 343 342 342 342 342 343 342 342 342 341 342 342 342 342 341 341 341 341 341 342 341 339 337 338 340 341 341 342 343 342 343 342 342 342 342 341
350 351 352 351 349 347 347 350 350 349 354 356 355 355 355 355 355 355 354 354 353 353 353 352 350 351 351 350 349 348 349 348 348 348 348 347 346 347 345 344 344 344 345 345 344 344 344 345 341 333 336 344 344 344 345 345 344 344 344 344 343 343 343 343 343 343 344 342 342 341 341 342 342 342 341 340 341 341 341 341 341 341 338 335 336 339 341 341 342 342 342 342 340 340 340 340 339
349 351 351 349 349 348 347 348 349 351 355 355 356 356 355 355 356 355 354 354 354 353 353 352 351 351 351 350 348 348 348 348 348 347 347 346 346 345 344 343 344 345 345 345 343 343 344 345 340 329 334 345 345 344 345 345 345 344 344 344 343 343 343 343 344 344 343 343 342 341 341 342 341 341 340 340 341 341 341 341 341 341 339 336 336 339 341 342 342 342 342 341 340 339 338 337 337
349 349 350 349 349 348 347 347 350 353 356 356 356 356 355 356 356 355 354 353 353 352 352 352 351 351 350 349 348 348 348 347 347 347 346 346 344 343 342 342 343 345 344 343 339 339 343 345 338 326 333 345 345 344 345 345 345 344 344 344 343 343 342 342 342 342 342 342 341 341 341 341 341 341 341 340 341 341 340 340 340 341 340 337 336 338 340 341 342 342 342 342 342 341 339 338 337
350 348 348 349 347 348 348 348 350 354 357 357 356 356 356 356 355 356 355 354 352 352 352 352 351 351 350 349 348 348 347 347 347 346 345 343 341 340 339 341 342 344 344 340 335 335 341 342 334 325 333 345 345 345 345 345 345 344 344 344 343 343 342 342 342 342 342 341 340 339 340 341 342 341 341 341 341 341 340 341 340 341 340 337 336 338 339 339 340 341 342 342 342 341 339 338 336
347 348 347 347 347 347 348 346 350 355 358 357 356 356 356 356 355 356 355 353 353 352 352 352 351 351 350 349 348 348 348 348 347 345 343 341 340 339 339 338 340 343 343 339 332 333 338 336 329 326 335 345 345 345 346 345 345 345 344 344 343 343 343 342 341 341 341 340 339 339 339 341 342 341 342 341 340 340 340 341 341 341 340 336 337 340 340 339 340 341 343 342 342 341 339 339 337
344 347 347 347 347 346 345 346 352 356 357 357 356 356 356 356 356 356 355 354 354 353 353 352 351 350 349 349 348 348 348 348 347 346 344 343 342 340 339 339 341 343 342 338 331 333 336 330 328 330 338 344 345 345 346 345 345 345 344 344 343 342 342 341 341 341 340 339 338 338 340 342 341 341 340 340 339 338 338 339 339 339 337 336 337 340 340 340 341 342 343 343 342 343 342 341 340
341 343 343 344 344 343 343 344 351 356 357 358 356 357 357 356 356 356 355 356 355 353 352 351 350 350 350 349 348 348 348 348 347 347 346 345 343 340 339 341 344 344 341 336 331 333 333 327 329 337 341 344 345 346 346 345 345 345 344 343 342 341 341 340 340 340 338 337 337 339 341 342 341 339 339 338 338 337 336 338 338 338 338 338 339 339 340 341 342 343 343 344 344 344 343 343 342
340 341 341 342 341 341 341 342 350 356 356 358 357 356 357 355 355 356 355 356 354 352 351 351 350 350 350 349 348 349 348 349 348 348 346 345 343 340 340 342 343 342 338 334 331 332 329 327 334 341 343 344 344 345 345 346 345 344 344 342 342 341 340 339 339 339 338 339 339 339 340 341 340 338 337 338 338 337 337 339 340 340 339 340 341 341 341 342 343 344 345 345 345 345 345 345 344
338 340 341 341 340 340 339 341 351 356 356 357 357 356 357 355 356 357 356 355 353 351 350 351 351 350 350 349 349 349 348 348 348 348 347 346 344 343 343 344 343 339 334 332 331 330 327 328 338 343 344 343 343 345 345 345 344 343 344 342 341 341 340 340 339 340 340 340 341 340 340 341 339 337 337 338 339 339 339 340 341 341 341 340 341 342 342 343 344 345 345 345 345 345 345 345 345
338 340 340 340 338 337 335 339 351 355 356 357 356 356 356 356 356 356 356 355 353 351 351 351 351 350 350 349 348 348 348 348 348 348 348 348 347 346 345 342 340 336 333 333 330 328 325 330 340 342 342 341 342 344 343 344 344 343 344 342 341 341 340 340 339 340 341 341 341 340 340 340 339 337 337 337 338 339 339 340 341 341 341 341 342 342 342 343 344 344 344 344 344 344 344 345 345
337 336 336 335 332 334 331 337 352 355 356 357 356 355 355 356 356 356 356 354 352 351 351 351 351 351 350 349 349 349 348 348 348 348 347 347 347 346 343 340 338 335 333 332 329 327 326 330 339 341 341 341 340 342 342 342 343 343 343 341 341 340 340 339 340 341 340 340 340 340 340 340 340 340 340 339 339 339 338 339 341 342 342 342 342 343 342 343 343 344 343 343 343 343 343 344 345
332 330 331 330 329 340 342 343 354 355 355 356 355 354 355 355 354 356 357 354 352 352 352 352 351 351 350 349 349 348 348 348 348 347 347 346 345 342 340 337 336 335 333 330 328 327 326 330 338 341 341 340 339 340 340 341 341 342 342 340 340 341 340 339 340 340 340 340 340 339 340 340 340 342 342 343 342 342 341 341 341 342 343 342 342 343 343 343 343 343 343 343 343 343 343 343 344
329 328 329 331 329 344 351 351 354 354 354 355 355 353 353 354 353 355 356 354 353 352 352 352 351 351 350 349 349 348 348 348 348 347 347 345 341 338 337 335 336 335 333 330 328 327 326 330 337 339 340 340 339 339 339 340 339 340 340 338 340 340 339 340 340 341 340 340 340 340 341 341 342 342 343 344 344 344 344 344 344 343 343 343 342 343 343 343 343 343 343 343 343 343 343 343 343
329 327 326 330 327 339 353 354 353 354 354 356 354 348 350 355 354 355 356 354 353 352 352 352 351 351 350 349 349 348 348 348 348 348 346 343 338 337 337 336 336 336 333 329 327 326 326 330 335 338 339 339 339 338 338 339 339 339 337 336 338 339 339 339 340 340 340 340 340 341 342 343 343 342 344 344 344 345 344 345 345 345 345 344 343 343 343 343 343 344 343 343 343 343 343 342 342
328 327 325 328 325 334 353 354 352 354 352 356 352 345 346 352 353 355 355 354 353 352 352 352 351 351 350 350 349 348 348 348 349 347 345 340 338 337 337 337 337 336 333 329 327 327 327 330 333 336 337 338 338 337 337 338 338 338 336 336 336 337 339 340 340 341 341 340 341 343 343 343 343 343 344 344 345 345 344 344 344 345 345 345 344 343 343 344 344 344 344 344 343 343 342 342 342
325 327 327 325 321 332 352 354 352 354 352 355 352 344 345 348 352 355 355 353 353 352 352 352 351 351 350 350 349 348 348 348 348 346 342 339 339 338 338 339 337 336 333 329 327 327 329 331 333 334 335 336 336 335 336 337 337 338 336 336 336 336 338 340 341 342 342 341 342 344 344 343 343 343 344 345 345 345 344 344 344 344 345 345 345 344 344 344 344 344 344 344 344 343 343 343 342
326 326 326 322 319 330 347 352 353 353 353 354 351 348 348 347 352 355 354 354 353 353 352 351 351 351 350 350 349 348 348 348 348 346 342 340 340 339 339 339 337 335 333 329 327 327 329 332 333 334 334 333 333 333 335 337 337 338 337 337 337 336 337 340 342 344 344 343 344 345 345 345 344 344 344 345 345 345 345 345 344 343 344 345 345 344 344 344 344 344 344 344 344 343 344 344 343
325 325 325 320 321 331 338 347 354 351 352 354 352 352 350 348 352 355 354 354 353 353 352 352 351 351 350 350 349 349 349 349 349 347 344 342 341 341 339 339 337 335 333 329 327 327 329 332 333 333 333 333 333 332 333 336 337 338 339 338 338 337 337 339 342 345 344 344 344 345 345 345 345 344 345 346 345 345 345 345 345 343 343 344 344 344 344 344 344 344 344 345 344 343 344 345 343
325 324 325 320 322 332 332 340 353 352 351 353 353 354 352 350 351 354 354 354 353 353 353 352 352 351 350 351 349 349 349 349 349 347 345 343 343 344 344 344 340 337 335 330 328 327 329 331 333 332 333 334 333 332 332 334 337 338 339 340 339 338 338 340 342 344 344 344 344 344 345 345 345 345 344 346 345 345 344 345 345 343 343 343 343 344 344 344 343 344 344 344 344 343 344 344 342
327 324 324 321 322 328 326 329 343 352 352 352 353 352 353 351 351 353 354 354 354 353 353 352 352 352 351 351 350 350 350 349 349 348 347 346 345 346 347 347 343 340 336 331 329 328 329 331 332 332 333 335 335 334 333 334 337 338 339 340 340 339 339 340 342 343 343 344 343 343 343 343 343 343 343 344 344 344 345 344 343 343 344 344 344 345 345 344 344 345 345 345 344 344 343 343 342
326 324 323 323 321 323 325 322 331 349 352 349 353 352 351 352 350 352 354 353 354 354 353 353 352 352 351 351 351 350 350 349 349 348 348 348 347 347 348 347 345 343 340 335 331 329 329 330 331 333 334 336 335 334 333 334 336 338 339 340 340 339 339 340 342 342 342 342 341 340 340 340 341 341 342 343 344 345 345 344 344 344 344 344 344 345 344 344 345 346 346 346 345 344 343 342 342
325 326 324 324 323 322 325 323 324 342 347 343 351 352 350 351 349 351 354 353 353 354 354 353 353 352 351 352 351 351 350 350 349 349 348 348 348 348 348 348 347 346 345 342 336 331 329 330 332 333 334 335 335 335 334 334 336 338 339 339 340 340 339 339 341 341 341 340 339 339 340 340 341 342 341 342 344 345 346 346 345 343 343 343 343 344 344 344 345 346 346 345 345 343 343 343 341
325 327 325 323 324 322 324 322 322 335 342 339 346 346 343 347 348 350 354 353 354 354 354 353 353 353 352 351 352 351 351 350 350 349 349 348 348 349 348 348 348 347 347 346 342 336 332 331 331 333 334 334 335 335 335 335 336 337 339 338 339 340 339 339 340 341 341 340 339 339 341 341 342 342 341 341 344 345 346 347 346 344 342 343 343 343 343 343 345 346 346 345 344 344 344 343 342
325 326 325 323 324 322 320 322 324 334 339 336 339 337 335 340 343 347 351 353 354 354 354 354 353 353 352 352 351 352 351 350 350 349 349 349 348 348 348 348 349 348 347 347 346 343 340 336 333 333 335 334 335 335 336 336 337 338 339 339 340 339 340 339 340 342 342 340 340 340 340 341 341 342 341 341 343 344 346 347 346 343 342 343 343 343 342 342 344 345 345 344 344 346 345 344 343
325 325 326 325 325 324 322 322 324 329 332 335 334 328 329 337 339 340 346 351 353 354 354 354 353 353 352 352 351 351 351 350 350 350 349 349 348 348 349 349 349 348 348 347 347 347 346 342 337 336 336 336 336 336 337 337 337 339 340 340 340 340 339 339 340 343 343 341 340 339 340 340 339 340 341 342 343 343 346 347 345 342 342 344 343 342 341 342 343 345 346 345 345 346 345 344 343
325 325 326 326 326 325 324 323 323 321 323 331 331 322 326 340 345 343 345 348 350 353 354 354 354 353 352 352 351 351 351 351 350 350 350 349 349 349 349 349 349 348 348 348 347 347 347 345 341 338 337 337 337 337 337 338 338 339 340 342 341 340 339 338 339 343 342 341 341 340 340 339 337 339 341 342 343 343 345 347 345 343 342 343 344 343 342 341 342 343 345 345 346 345 344 344 344
325 325 325 326 326 325 325 324 323 320 319 328 332 324 322 333 345 348 348 348 350 351 353 354 354 353 353 352 352 351 351 351 350 350 350 350 349 349 349 349 349 348 348 348 348 347 347 347 344 341 339 339 338 338 338 338 338 338 340 342 342 341 340 338 339 342 342 341 340 341 340 339 338 339 341 342 343 343 344 346 345 344 343 344 344 344 343 342 342 342 343 345 346 345 344 344 344
326 325 323 325 325 325 325 324 322 321 321 325 333 331 324 328 341 349 350 350 350 351 351 352 354 353 353 352 352 352 351 350 350 350 350 349 349 349 349 349 348 348 348 348 348 348 348 347 347 345 343 342 341 339 338 338 339 338 339 342 344 342 340 339 340 342 342 341 341 341 340 340 340 341 342 343 342 342 344 346 344 344 344 343 343 343 343 343 343 342 342 343 345 345 345 344 344
327 323 322 324 325 325 326 325 323 323 321 320 329 334 326 328 341 347 349 349 348 348 347 349 353 353 353 353 351 352 351 351 350 350 351 350 350 349 349 349 349 348 348 348 348 348 348 348 348 347 345 344 344 342 340 338 338 339 338 340 342 343 342 340 341 343 342 341 341 341 342 342 343 343 343 344 342 341 343 344 344 344 345 343 343 343 343 343 343 343 342 342 343 344 344 344 344
325 321 321 322 322 324 324 324 322 321 320 319 326 332 325 328 340 343 345 346 343 343 343 345 350 352 352 353 352 352 351 351 351 350 350 350 349 349 349 349 349 348 348 348 349 348 348 348 348 348 347 345 345 345 343 340 338 339 338 338 339 341 342 341 342 343 343 342 341 342 342 343 344 344 343 344 343 341 342 344 344 344 345 343 343 344 344 343 343 344 344 344 344 344 344 344 344
324 322 322 323 323 324 323 323 321 319 320 318 323 332 325 327 338 342 341 342 340 340 341 341 346 349 352 352 352 352 351 351 351 350 350 350 350 349 349 349 349 349 349 349 349 349 349 349 349 348 348 347 346 346 345 343 339 338 338 338 338 340 342 342 342 343 343 343 342 341 343 344 344 345 344 343 343 342 341 342 343 344 345 344 343 344 344 344 345 345 345 345 345 345 345 345 346
323 323 324 322 322 323 321 321 320 319 319 318 322 331 330 332 340 342 339 339 338 338 339 338 340 345 350 352 352 352 352 352 351 350 350 350 350 350 350 349 349 349 349 349 349 349 349 349 348 349 348 348 347 346 346 345 341 338 338 338 338 339 341 342 342 342 342 342 341 341 342 344 345 345 345 344 343 342 341 342 342 343 344 344 343 343 344 345 346 346 346 346 346 346 346 346 346
323 322 322 321 320 321 321 320 320 319 319 318 321 326 333 338 342 340 338 337 336 337 338 338 338 340 344 349 351 352 352 352 352 351 350 350 350 350 350 349 349 349 349 349 349 349 349 349 349 349 349 348 348 347 347 346 343 338 337 338 338 338 340 341 341 342 341 341 341 340 342 345 345 345 345 343 342 342 341 341 341 342 343 343 343 344 344 344 345 347 348 348 347 347 346 345 345
323 321 320 320 320 321 321 320 320 319 318 318 319 323 332 338 340 338 337 335 336 337 337 338 338 338 340 343 349 351 352 352 352 352 351 350 350 349 349 350 350 349 349 349 349 349 349 350 349 349 349 349 348 347 347 346 344 339 336 336 337 337 339 340 340 341 341 341 341 339 341 344 345 344 344 344 343 342 341 340 340 340 342 342 343 344 343 342 343 347 349 348 347 347 346 345 345
322 322 322 320 319 320 320 319 319 319 318 318 316 321 332 338 338 338 337 336 336 336 336 337 337 338 338 340 344 347 349 351 351 352 352 351 351 350 349 349 349 350 350 349 349 349 350 350 350 349 349 349 348 348 347 347 346 342 337 335 336 337 339 340 340 340 340 340 341 340 339 341 343 344 344 344 344 343 341 340 339 339 340 341 342 343 343 342 341 344 347 348 347 347 346 346 345
320 321 321 320 319 321 320 319 320 319 318 317 319 326 334 336 335 336 337 336 335 335 335 336 336 337 337 338 339 341 343 346 349 351 352 352 351 351 350 350 350 350 350 350 350 350 350 349 350 350 349 349 348 348 348 347 347 345 341 336 335 336 338 339 339 338 339 340 340 340 338 338 341 344 344 344 344 343 341 339 339 339 340 340 341 342 342 342 342 342 344 345 346 346 346 346 346
319 319 319 318 319 321 321 319 320 319 317 319 325 331 334 334 332 334 337 335 334 334 334 335 335 336 336 336 336 337 339 342 345 348 350 352 351 351 351 351 351 350 350 350 350 350 350 350 350 350 349 349 348 348 348 347 347 347 345 340 336 336 337 338 337 338 339 339 339 339 338 337 338 341 344 344 344 343 341 338 339 339 339 340 340 341 341 341 341 341 342 343 345 345 345 345 345
318 318 318 317 318 321 321 320 320 318 317 323 329 329 328 331 332 334 337 335 333 332 333 334 334 334 334 335 335 336 337 340 342 345 348 350 352 351 351 351 351 350 350 350 350 350 350 350 350 350 350 349 349 348 348 348 348 347 346 344 340 337 336 337 337 337 338 338 339 339 338 336 335 338 342 343 343 343 341 339 338 338 338 340 340 340 340 340 341 341 341 341 342 343 344 345 345
316 316 316 317 318 320 321 320 320 317 320 327 329 326 324 328 332 335 338 337 333 332 332 332 332 332 332 333 333 334 335 338 341 343 345 349 351 351 351 351 351 350 350 350 350 350 350 350 350 350 349 349 349 349 348 348 348 347 347 346 345 341 337 336 336 337 337 338 338 338 337 335 334 335 339 341 342 342 341 339 337 337 338 339 339 339 339 340 340 339 339 340 340 341 341 343 344
315 315 315 316 318 320 319 320 319 318 323 327 328 327 325 328 334 338 339 336 333 332 331 330 331 330 329 330 331 332 333 335 338 341 345 348 351 351 351 351 351 351 351 350 350 349 350 350 349 349 349 349 349 349 349 348 348 348 347 347 346 345 341 338 336 337 337 336 337 336 336 335 333 334 336 338 339 340 341 340 338 338 337 337 338 339 339 339 339 338 339 339 339 339 339 340 341
315 315 315 315 316 318 318 319 318 318 324 326 327 328 326 329 336 340 338 335 331 331 330 330 330 329 328 328 329 330 331 332 335 339 344 347 349 350 350 350 351 350 350 351 350 349 349 349 349 348 349 349 349 349 349 349 348 348 348 347 347 347 345 341 337 336 336 335 335 335 334 334 334 333 333 335 336 337 338 339 340 339 338 337 337 338 339 338 338 337 337 338 338 338 338 338 338
313 313 313 313 314 316 318 319 318 319 323 325 325 326 325 329 334 336 335 333 331 330 330 329 329 329 328 327 327 328 328 330 332 336 341 345 348 349 349 350 351 351 350 350 350 350 349 348 348 348 348 348 348 349 348 349 349 348 348 348 348 347 347 345 342 338 335 335 335 334 334 333 333 333 332 333 333 334 335 337 339 339 339 338 337 338 338 337 337 337 337 336 336 337 337 337 337
Wind_Speed
10 12 13 11 10 7 4 2 2 1 1 1 1 1 1 1 1 3 5 4 4 4 4 11 15 10 5 5 9 11 8 3 1 0 5 13 22 22 21 22 22 23 25 26 26 24 23 23 22 20 18 18 17 17 16 14 14 14 14 12 11 11 13 13 13 13 13 13 13 12 12 11 10 10 11 12 11 11 11 11 12 12 12 12 11 10 9 9 10 9 9 9 9 10 11 11 10
11 12 13 10 7 3 2 2 1 0 1 1 0 0 2 2 1 3 6 6 5 7 10 15 13 8 8 11 12 11 10 6 2 5 13 23 26 22 22 22 22 24 25 26 25 24 22 22 21 20 18 17 17 16 15 14 14 13 12 11 11 12 13 12 12 12 12 12 12 11 11 10 10 10 11 12 12 12 12 12 13 13 13 13 12 12 11 10 10 9 9 9 9 10 11 11 10
12 11 10 7 4 1 1 1 1 0 2 1 1 1 2 2 2 4 7 8 10 14 16 15 11 8 9 10 6 6 6 6 8 15 21 26 25 24 24 23 24 24 25 26 24 24 23 21 20 19 18 16 16 15 14 13 13 12 11 11 11 12 12 12 12 12 12 11 11 10 9 9 10 11 11 12 13 13 12 12 13 13 14 14 13 12 12 11 10 10 10 9 9 10 11 12 10
12 10 8 4 2 1 1 0 0 1 1 1 1 1 2 2 4 6 8 12 16 17 15 12 8 5 5 7 6 7 8 8 12 19 24 24 25 27 26 25 25 23 24 25 23 23 22 21 20 18 16 15 15 14 13 13 12 11 11 10 10 11 12 12 11 11 11 11 11 10 9 9 10 11 12 12 13 13 12 12 13 14 14 14 13 11 11 10 10 11 11 10 10 10 11 11 10
12 9 6 3 1 0 0 0 0 2 1 1 1 1 3 3 7 7 9 14 15 13 11 8 6 5 7 8 4 5 10 13 14 18 23 25 27 28 27 26 24 23 23 23 23 22 20 20 19 17 15 14 14 14 13 12 11 10 9 9 10 11 12 12 11 10 10 10 10 9 9 10 11 11 11 12 12 12 13 12 13 14 13 13 13 12 10 10 10 10 10 10 10 11 11 11 10
10 7 4 2 1 1 1 1 1 3 2 1 2 1 4 3 8 10 13 13 9 9 9 6 8 9 9 8 6 8 10 13 17 17 24 29 29 29 28 26 24 23 23 23 22 21 20 19 18 17 15 15 14 13 12 11 10 8 8 9 11 12 11 11 10 10 10 9 9 9 10 12 11 10 10 11 12 12 13 13 13 13 13 13 13 12 10 10 10 10 10 10 10 10 11 12 10
8 5 2 1 2 1 2 2 2 3 1 1 2 1 3 5 9 13 14 12 8 8 9 8 12 11 8 6 8 9 5 10 17 20 27 31 30 30 28 26 24 24 23 23 22 20 20 18 17 17 16 15 13 12 11 10 9 8 8 10 12 12 11 10 10 10 9 9 9 9 11 12 11 10 10 11 12 12 13 13 13 13 12 13 12 12 11 9 9 10 11 10 10 10 11 12 11
6 3 1 1 1 0 2 2 3 2 0 1 1 1 3 9 12 12 13 11 9 9 10 12 12 9 6 5 7 6 5 12 19 22 30 33 31 30 28 26 25 23 22 22 21 20 19 18 18 17 16 15 13 12 10 10 9 9 10 11 12 12 10 10 10 10 9 8 9 9 11 12 11 11 11 12 12 12 13 13 13 12 12 13 12 11 12 11 11 12 12 11 12 12 12 12 12
5 2 1 1 1 1 2 3 3 2 1 1 1 2 5 11 11 11 12 9 10 11 11 11 6 7 8 9 10 6 7 15 21 26 32 33 32 30 29 26 25 23 22 21 20 19 18 18 18 17 16 14 13 11 11 10 10 10 11 12 12 11 10 10 9 9 9 8 9 9 10 12 11 11 11 11 11 12 13 12 12 12 12 12 12 12 13 12 13 13 14 13 13 14 14 14 14
3 1 1 1 1 2 3 3 2 2 1 1 2 2 8 11 10 11 12 11 13 12 9 8 7 11 12 11 10 7 11 20 25 27 30 32 32 31 29 26 25 23 22 21 19 18 18 18 17 16 15 13 12 11 11 10 10 11 11 12 12 11 10 10 9 9 9 8 8 9 11 12 12 11 11 11 11 12 12 12 12 12 12 13 12 12 13 13 14 14 14 14 14 15 15 14 15
1 1 0 1 2 3 3 4 4 2 1 1 1 4 8 10 10 10 12 13 12 12 10 9 12 16 14 10 9 9 16 24 26 26 27 31 32 31 29 26 25 23 22 21 19 18 17 17 16 15 14 13 11 11 11 10 11 11 12 12 11 11 10 9 8 8 9 8 9 10 11 12 12 12 11 11 11 11 12 11 12 12 12 12 12 12 13 14 14 14 15 15 15 15 15 15 15
1 1 1 1 2 2 4 5 5 3 1 1 3 4 7 8 9 10 13 13 12 12 10 7 12 15 11 8 9 13 20 24 24 25 25 28 30 30 29 26 25 23 20 19 18 18 17 16 15 14 13 12 11 11 11 10 11 11 11 11 11 10 10 9 8 8 9 9 9 10 11 12 12 13 12 11 11 11 12 11 12 12 12 12 12 13 14 14 14 14 15 15 15 15 15 15 15
1 1 1 2 2 3 5 5 4 2 2 2 3 5 7 7 8 11 13 13 12 10 6 9 15 12 9 10 13 17 21 24 24 24 25 27 29 29 28 26 24 22 19 19 18 18 17 16 14 14 13 12 11 11 11 10 11 11 10 10 10 10 10 9 8 9 9 9 10 10 11 12 12 13 12 11 11 11 11 12 12 13 12 11 11 13 14 14 14 14 15 16 16 16 15 15 15
0 2 2 2 2 3 4 3 3 2 3 3 5 6 6 5 7 10 13 13 8 7 8 13 16 11 12 13 13 19 22 25 25 24 25 26 27 28 28 25 23 21 19 19 18 17 16 15 14 14 13 12 11 10 11 10 10 10 10 10 10 9 10 9 9 9 9 9 10 10 11 11 12 12 12 12 11 11 11 12 13 13 12 11 11 12 13 14 14 14 16 17 17 16 15 15 15
2 2 2 2 3 2 1 1 3 2 3 4 6 8 7 6 8 9 10 10 6 9 12 13 13 7 12 13 13 23 25 26 26 25 26 26 26 26 27 25 22 20 18 18 17 16 15 14 14 13 13 11 10 10 11 10 10 9 10 10 9 9 9 9 9 9 9 9 9 10 11 11 11 12 12 12 11 11 11 11 12 13 12 11 11 12 13 13 14 15 17 17 18 17 16 15 15
3 3 2 1 2 1 1 2 3 2 3 5 8 9 8 7 9 7 6 9 11 12 10 10 8 2 12 16 19 28 27 26 26 25 26 26 25 25 26 24 21 19 18 18 16 15 15 14 13 13 13 12 11 11 11 10 10 9 10 9 9 9 9 9 9 10 9 9 9 10 11 11 12 12 12 12 11 11 11 11 11 12 12 11 11 12 13 13 14 15 17 17 18 18 17 17 16
1 2 2 1 1 2 3 4 5 3 3 7 9 8 8 8 7 8 9 13 15 11 7 8 4 4 14 16 23 30 27 27 26 25 25 25 25 24 25 24 20 19 18 17 16 16 15 14 14 14 12 12 12 12 11 10 10 9 9 9 9 9 9 9 9 9 9 9 10 10 11 11 11 11 12 12 12 11 11 11 12 12 12 11 11 11 12 13 14 15 16 16 17 17 17 16 16
2 2 2 1 1 1 3 5 6 2 2 8 11 8 8 9 9 12 12 12 14 12 10 10 7 9 15 19 28 30 27 28 27 27 26 24 24 24 25 24 22 20 18 18 17 16 15 14 14 14 12 11 11 11 11 10 10 9 9 9 9 9 9 9 8 8 8 9 9 10 11 11 11 11 12 12 12 11 11 12 12 12 12 11 11 11 12 12 13 14 15 15 16 16 16 15 15
4 2 2 2 1 2 3 6 6 3 3 10 12 9 8 9 12 13 11 11 13 13 12 13 14 15 17 23 29 28 28 29 28 28 26 25 26 27 27 25 23 21 19 19 18 17 15 14 14 14 13 12 11 11 11 10 10 9 9 9 9 9 8 8 8 8 8 8 9 9 10 11 11 11 12 12 11 11 11 12 12 12 12 11 11 11 11 12 13 14 14 14 14 15 15 14 13
6 4 3 2 1 4 4 7 8 3 5 11 13 10 8 10 13 11 11 13 12 11 13 15 17 19 23 26 27 28 28 28 28 27 27 28 29 30 29 27 24 20 19 20 20 18 15 14 14 15 14 13 12 11 10 10 9 9 9 9 9 8 8 8 8 8 7 7 8 9 10 11 11 11 11 11 11 11 11 12 12 12 11 11 11 11 11 12 13 13 13 13 14 14 14 13 13
5 5 3 1 2 5 5 7 7 1 6 12 14 11 9 12 12 10 13 12 8 11 14 17 22 25 27 28 29 28 28 27 28 26 28 30 30 31 29 28 24 20 19 20 20 18 16 16 15 15 15 13 12 11 10 10 9 9 9 9 8 8 8 8 8 8 7 7 8 9 10 11 11 10 10 11 11 11 11 11 11 11 10 11 11 11 11 11 12 12 12 13 14 14 14 13 12
3 5 6 6 7 8 8 7 5 2 7 12 14 11 10 13 10 11 15 7 5 12 14 18 25 28 30 31 30 29 28 28 27 26 27 28 28 29 28 26 22 19 19 20 21 18 17 17 15 15 15 13 13 11 10 10 9 8 9 8 8 8 8 8 8 8 8 8 9 10 11 10 10 10 10 11 11 11 11 11 11 11 11 11 11 11 11 11 11 12 12 12 13 13 13 13 13
4 5 7 10 10 10 10 7 3 3 8 12 12 11 13 14 9 12 13 1 3 12 15 18 23 27 30 31 30 29 29 28 27 27 27 26 27 29 29 25 19 18 19 20 21 19 18 17 15 16 15 14 13 12 10 10 9 9 9 9 8 8 8 8 8 8 8 9 10 10 10 10 9 10 10 10 11 11 11 11 11 11 11 11 11 11 11 11 12 12 12 12 12 12 11 11 12
7 6 8 11 11 12 14 9 6 6 8 10 11 12 14 13 8 11 11 2 6 14 16 19 22 26 29 29 29 29 29 28 27 26 25 27 28 29 27 22 19 18 20 21 21 19 18 16 16 16 14 14 14 12 11 10 10 9 9 9 8 8 8 8 8 8 9 10 10 10 10 9 9 9 10 10 10 10 11 11 10 10 10 10 10 10 10 11 11 11 11 11 11 11 10 10 10
8 8 9 10 11 13 14 9 7 9 7 9 12 11 12 11 7 10 10 5 10 16 18 21 23 25 26 28 29 28 28 27 26 24 23 23 24 25 22 20 20 20 22 22 21 19 17 16 17 16 13 14 14 12 12 10 10 10 9 9 9 8 9 8 8 9 9 9 10 10 10 9 9 9 10 10 10 9 9 9 9 9 9 9 9 9 9 10 10 10 10 11 11 11 11 10 10
7 10 11 11 14 16 14 8 9 10 9 11 11 9 10 10 5 7 10 9 13 18 19 22 25 25 26 27 28 28 28 27 27 24 22 20 20 21 21 21 22 22 22 21 21 19 17 16 17 16 14 14 14 12 12 11 10 10 9 9 9 9 9 9 9 9 9 9 9 10 10 10 10 9 9 9 9 8 7 7 7 7 7 7 7 7 8 8 9 9 10 11 12 12 12 11 11
3 9 11 13 15 14 10 6 10 11 9 12 10 8 10 9 4 5 10 12 16 19 21 23 24 25 25 26 26 26 26 27 26 24 22 21 20 21 22 23 23 23 22 22 21 19 17 17 17 16 15 14 14 13 12 11 11 10 10 10 9 9 10 9 9 9 9 9 9 9 9 9 9 9 9 8 8 7 6 6 6 5 5 5 5 5 6 7 8 9 9 10 11 11 11 11 10
5 8 10 11 10 6 3 3 11 10 7 9 9 7 8 8 4 4 12 16 18 21 22 24 24 24 24 25 25 25 25 25 24 23 24 24 24 25 26 26 26 24 24 23 21 19 17 17 17 17 16 15 14 13 13 12 11 11 10 11 10 10 10 10 10 10 10 9 9 9 8 8 8 8 8 7 7 6 5 5 4 4 3 3 4 4 5 6 6 7 8 8 9 9 9 10 10
7 6 8 9 6 1 3 4 10 8 5 10 9 6 6 9 5 4 14 17 18 21 22 23 23 23 24 24 24 24 24 24 23 23 25 28 30 29 28 27 26 25 24 23 21 19 18 17 18 17 16 16 15 14 13 13 12 12 12 12 11 11 11 10 10 10 9 9 9 8 8 7 7 6 6 5 5 4 4 4 3 3 3 3 3 4 4 5 5 5 5 6 6 7 7 8 9
5 3 4 6 6 1 4 4 8 5 6 13 10 3 3 9 8 7 15 19 18 20 21 22 23 22 23 23 23 24 24 24 24 24 25 30 31 29 27 26 25 25 24 23 21 19 18 19 18 18 17 16 16 15 14 13 13 13 14 14 13 12 11 11 11 10 9 9 9 8 7 6 6 6 5 4 4 3 3 3 2 2 2 3 3 3 3 4 4 3 3 3 4 5 7 8 8
2 2 2 3 3 2 4 4 8 4 5 12 8 2 2 5 10 11 14 20 20 20 20 21 22 22 23 23 23 24 24 24 25 25 28 31 30 27 26 25 25 25 24 23 21 19 19 19 19 18 18 17 16 15 14 14 13 14 15 15 14 13 12 12 11 11 10 9 8 7 6 6 6 5 5 4 3 3 3 3 2 2 2 3 3 3 4 4 3 3 2 2 2 4 6 7 7
1 2 3 1 2 1 4 5 8 4 5 11 7 2 1 1 8 14 15 19 21 19 20 21 21 22 23 22 22 23 23 23 24 27 29 30 28 27 26 25 25 25 24 22 20 20 20 20 19 18 18 17 16 15 15 14 14 14 15 15 14 13 13 13 12 11 10 9 8 7 7 6 5 5 4 3 3 3 3 3 3 2 2 3 3 3 4 4 4 3 3 2 2 2 4 5 6
1 3 2 1 2 1 3 4 6 5 7 10 7 3 2 3 5 13 15 19 20 18 19 20 21 22 22 22 22 22 23 22 23 26 29 29 27 26 25 25 26 25 25 23 21 20 20 20 19 18 17 16 16 15 15 15 14 15 15 15 15 14 14 13 12 11 10 9 8 7 6 6 5 5 4 3 3 3 3 3 2 2 3 2 2 2 3 4 4 4 4 3 3 2 2 3 5
3 2 2 0 1 2 1 3 6 8 7 9 9 5 1 3 4 11 14 18 19 18 19 20 20 21 21 21 21 22 23 23 24 26 28 28 27 25 24 24 25 25 24 23 21 20 20 20 20 18 17 16 16 15 15 16 15 15 16 15 15 15 14 14 12 11 10 8 7 6 6 5 5 4 3 3 2 2 2 2 2 2 2 3 2 2 2 2 3 4 4 4 4 3 2 2 4
5 4 3 1 1 1 1 1 6 10 6 7 8 7 7 2 5 10 13 17 19 17 18 20 20 21 21 21 21 21 22 22 24 27 28 28 27 25 23 22 23 25 25 23 22 20 20 20 20 19 18 17 16 15 16 17 16 16 16 16 16 16 15 14 13 11 10 8 7 6 6 5 4 3 3 2 2 2 2 2 2 2 2 3 2 2 1 2 4 4 4 4 4 4 2 0 1
5 3 2 2 1 1 1 2 4 9 6 6 8 8 10 7 6 9 12 15 17 17 17 19 20 21 21 22 22 21 21 22 23 26 27 27 27 25 23 21 21 24 25 24 23 21 21 21 20 20 19 18 17 16 17 18 18 18 18 18 17 17 16 15 14 12 10 8 7 7 6 5 4 3 3 2 2 2 2 2 2 2 2 2 2 3 2 3 3 4 4 3 3 4 3 1 1
4 3 3 2 0 1 0 2 1 7 6 6 9 9 9 7 7 10 13 14 15 17 17 18 21 23 23 23 23 23 22 21 20 23 26 26 26 25 23 22 21 21 23 24 24 23 22 21 21 21 20 20 19 18 18 19 20 19 19 19 19 18 17 16 14 12 10 9 9 8 7 5 3 3 3 2 2 3 2 2 2 2 1 1 2 3 3 3 3 3 3 2 2 3 2 2 3
1 1 1 0 1 1 1 3 2 5 5 3 6 8 10 9 7 10 13 14 16 19 19 20 22 23 24 24 24 23 21 19 19 21 24 25 26 26 24 23 23 22 21 22 23 24 23 22 22 21 21 21 20 19 19 19 20 20 19 19 19 18 17 16 14 11 10 10 10 9 7 5 4 3 3 3 3 3 2 1 1 1 2 2 2 2 3 3 3 3 2 2 2 2 1 2 2
3 2 2 1 1 1 1 3 3 4 5 2 3 6 9 9 8 10 15 16 18 21 22 23 24 23 23 24 24 23 21 21 21 23 24 25 26 27 26 25 24 23 21 20 21 23 24 24 23 22 22 21 21 20 19 19 19 19 18 17 17 17 17 16 14 12 11 11 11 9 8 6 4 4 3 3 3 3 3 1 1 2 2 3 3 3 3 3 4 4 4 3 2 1 0 1 1
3 3 4 2 1 1 1 3 3 3 4 2 1 5 6 6 6 8 15 18 18 20 22 21 22 24 23 22 23 23 23 24 24 24 25 26 27 28 28 27 25 25 24 22 22 22 23 24 24 23 23 22 22 21 20 19 18 18 17 16 16 16 17 16 15 14 13 12 12 10 9 7 6 5 5 4 4 4 4 2 2 2 3 3 3 2 2 3 4 5 5 5 3 1 1 1 1
3 4 5 3 2 3 1 2 2 3 5 2 1 4 3 3 5 6 10 15 16 17 19 18 18 21 21 20 22 24 25 25 25 26 26 27 28 30 30 29 27 27 26 25 23 23 23 23 23 23 23 23 22 21 20 19 19 19 19 18 18 18 18 18 17 16 15 14 13 11 9 8 7 7 6 6 5 5 5 3 3 3 3 3 2 2 2 3 5 5 6 6 5 3 2 1 1
3 5 7 7 4 3 2 1 3 3 3 2 3 4 1 1 2 3 3 9 12 14 17 19 18 18 20 22 23 24 25 26 25 26 27 27 29 31 32 30 30 29 27 25 24 22 21 21 22 22 22 22 22 22 21 21 20 20 20 20 20 21 21 21 19 17 15 14 12 11 10 8 8 8 8 7 6 6 6 5 4 4 4 3 3 3 3 3 4 5 6 7 6 4 3 2 2
4 4 6 8 6 5 4 2 2 3 1 1 3 4 1 2 4 6 4 5 8 10 13 16 18 19 22 24 24 24 25 26 26 26 27 28 30 32 33 32 32 31 28 26 24 23 22 21 21 22 22 21 21 21 22 22 22 21 21 21 21 21 21 21 19 16 14 13 12 11 10 10 10 9 8 7 7 7 6 6 5 4 4 4 4 3 3 3 3 4 6 8 7 6 4 3 3
3 2 4 8 9 8 7 5 3 2 2 1 3 3 2 1 6 10 6 2 3 6 9 12 16 18 20 22 24 25 27 27 27 27 27 28 30 32 33 33 32 30 28 27 26 25 23 22 21 21 22 21 20 21 22 23 24 23 22 22 21 21 21 20 18 16 15 13 12 11 11 11 10 9 8 7 7 7 7 6 5 5 4 4 4 3 3 3 4 4 5 6 7 7 6 5 4
2 2 2 5 7 8 7 5 3 1 2 3 4 3 2 1 6 10 8 5 5 5 7 9 14 18 19 21 22 23 25 27 27 27 28 29 31 33 33 33 31 29 29 29 27 25 24 22 22 22 22 22 21 21 22 23 24 24 23 22 22 21 21 20 18 17 16 15 13 12 12 11 10 9 8 7 7 7 7 7 6 5 5 4 4 3 3 3 4 4 4 5 6 6 6 6 5
2 4 3 2 2 2 3 3 2 2 3 4 5 7 4 2 6 9 9 8 9 9 8 8 12 17 20 21 21 22 22 24 26 27 28 29 31 33 33 33 31 31 31 29 27 26 25 24 24 23 23 23 22 21 21 23 25 25 24 23 23 22 21 20 20 18 17 16 14 14 14 12 11 9 8 8 8 8 8 7 7 6 5 5 4 3 3 4 4 4 4 4 5 5 5 5 5
5 6 4 2 2 1 1 1 1 2 4 4 4 7 4 1 5 8 8 8 10 9 8 10 10 13 19 20 19 21 21 21 22 25 27 29 30 31 32 34 33 33 33 31 29 28 27 26 25 25 24 24 23 22 22 22 25 27 26 24 23 22 21 21 21 20 19 18 16 15 15 14 12 11 9 9 9 9 9 8 8 7 6 5 4 4 4 4 4 4 4 4 4 4 4 4 4
6 5 5 3 2 1 2 2 2 4 4 1 2 5 3 2 3 7 8 9 11 9 9 11 13 10 11 17 20 21 22 22 22 25 27 29 29 29 31 34 35 34 35 33 32 31 30 29 27 27 26 25 24 24 23 23 25 27 27 26 24 23 22 21 21 21 20 19 17 16 17 16 14 12 11 10 10 10 10 9 9 8 7 6 5 5 5 4 4 4 4 4 4 4 4 3 3
7 6 6 5 4 4 5 4 3 4 2 2 3 5 6 5 4 7 9 10 11 11 11 11 13 14 10 8 17 22 22 23 24 26 29 32 33 32 33 35 36 36 36 35 34 34 33 31 30 28 27 26 26 25 24 24 24 26 27 27 25 24 22 21 21 21 20 19 18 17 17 18 16 14 13 11 10 10 10 9 9 8 7 6 6 6 5 5 5 5 5 5 5 4 4 3 2
9 8 7 6 5 6 7 4 2 4 3 2 1 2 4 6 5 8 9 10 12 13 13 13 13 13 13 9 6 16 20 23 25 27 30 35 37 36 35 36 38 38 37 36 36 36 35 33 32 30 28 27 27 26 25 25 24 24 26 27 26 24 23 22 21 21 20 20 19 18 18 18 17 15 13 11 10 10 10 9 9 9 8 8 7 7 6 6 6 6 7 6 6 5 4 3 3
8 7 7 6 4 5 6 5 5 5 4 4 1 2 4 7 5 7 8 10 13 14 15 16 17 16 15 14 8 2 9 17 23 27 31 35 37 38 37 38 39 39 38 38 38 38 37 36 34 32 30 28 27 27 27 26 25 24 24 26 26 25 24 23 21 21 21 20 20 19 19 19 18 16 14 12 10 10 10 10 10 9 9 9 9 8 7 7 7 7 7 7 7 6 5 4 3
4 3 6 6 4 2 1 2 2 3 4 4 2 2 5 7 6 7 9 11 14 16 19 20 21 21 19 18 17 12 6 6 14 22 29 34 37 37 38 39 39 39 40 40 40 39 38 37 35 33 31 29 28 27 27 27 26 25 23 24 26 26 25 24 22 21 21 20 20 19 19 19 19 17 15 13 11 11 11 11 10 10 10 10 10 10 9 8 7 7 7 7 7 7 6 5 4
4 5 6 3 0 0 1 2 2 0 5 4 2 4 6 5 5 7 10 11 14 17 20 22 22 21 20 21 20 19 14 7 8 15 21 29 35 38 38 39 40 41 41 41 41 39 38 37 36 35 33 32 30 28 27 27 27 26 24 24 25 25 25 25 24 22 21 21 20 19 19 20 19 18 17 15 13 12 11 11 11 11 11 11 11 11 10 9 8 7 7 7 7 8 8 6 5
3 5 5 3 2 1 1 3 3 5 7 3 3 6 5 3 2 6 10 12 14 15 16 19 21 21 21 21 21 21 20 13 7 13 17 21 29 36 38 38 39 40 41 41 41 39 38 37 36 36 35 34 32 30 28 28 28 27 26 24 24 24 25 25 24 23 22 22 21 20 20 20 20 19 17 16 15 13 12 12 12 12 12 11 11 11 11 11 10 8 7 7 7 8 8 7 6
2 1 2 2 2 3 2 2 5 8 7 4 5 6 4 3 2 6 10 12 13 13 14 15 19 21 21 21 22 22 23 20 12 7 12 17 22 29 34 35 35 39 40 39 40 39 39 39 38 37 36 34 32 30 30 29 28 28 27 25 24 24 24 24 24 24 23 23 22 21 21 20 20 19 18 17 16 14 13 13 13 13 13 13 12 12 12 12 11 10 9 7 7 7 8 7 7
2 1 1 1 1 2 2 1 2 5 6 5 5 4 3 4 5 6 8 11 12 12 12 12 16 20 20 21 23 23 24 24 22 13 3 9 15 22 28 31 32 36 38 38 38 39 39 39 39 38 37 36 34 33 32 30 28 28 28 26 25 23 23 23 22 23 24 24 23 22 21 21 20 20 19 18 17 16 15 14 14 14 14 14 14 13 13 13 12 11 10 9 8 8 8 8 8
2 1 2 2 2 1 1 1 2 1 4 5 6 5 4 3 5 6 8 9 10 11 11 11 15 18 19 21 23 24 25 26 26 23 14 5 9 15 21 26 28 31 35 37 37 37 38 39 40 40 39 37 36 35 34 32 30 29 28 27 25 24 23 22 22 23 23 24 23 23 22 21 21 20 19 19 18 17 17 16 15 15 15 15 15 14 14 14 13 12 11 10 9 9 9 8 9
6 4 3 2 2 1 4 4 1 1 0 2 4 5 4 3 5 6 9 8 9 12 12 12 14 17 19 21 22 24 25 26 27 27 23 15 9 10 12 17 20 23 30 35 36 35 36 37 38 38 39 39 37 36 35 33 31 30 29 27 26 25 24 23 23 23 23 24 24 23 23 22 22 21 20 20 19 19 18 18 18 17 16 16 16 15 15 15 15 13 12 11 10 10 10 9 9
Wind_Direction
150 142 135 131 131 130 133 165 220 154 263 278 283 302 102 115 143 136 122 136 125 112 125 133 139 133 123 109 110 93 59 73 103 308 110 138 153 149 144 140 140 141 137 134 132 130 128 129 129 131 132 135 137 135 134 131 122 114 107 105 103 94 89 87 86 86 84 83 83 84 84 87 89 91 93 94 94 93 90 86 83 82 85 85 83 82 82 84 89 96 103 107 107 106 106 108 111
149 143 137 132 132 138 147 184 261 64 300 301 92 10 95 119 149 125 129 138 122 128 131 127 127 114 107 105 110 101 58 42 86 108 120 143 150 148 147 143 142 142 138 135 133 131 129 129 130 131 132 135 135 132 131 124 114 107 104 103 96 88 89 91 91 88 85 84 84 85 86 88 90 92 94 95 94 90 86 83 82 82 81 81 78 76 76 76 82 90 96 101 104 103 102 104 107
145 140 137 132 131 146 143 194 262 28 300 308 53 59 86 95 111 113 127 129 124 130 129 123 111 95 106 108 98 88 73 72 115 123 130 147 151 149 150 145 144 142 138 137 135 133 130 130 131 130 131 133 132 131 126 117 110 104 101 96 90 91 96 97 95 92 89 87 85 86 90 91 93 94 94 93 90 87 85 85 85 83 80 80 79 78 78 80 86 92 94 97 100 99 99 100 105
138 138 140 141 152 170 187 232 295 259 272 301 7 78 55 65 111 113 124 129 131 134 132 126 103 78 96 106 85 80 99 114 130 133 138 152 154 151 150 146 143 141 139 137 136 135 132 132 131 130 132 133 131 127 122 116 109 100 95 94 95 100 102 101 98 94 92 90 90 93 95 93 92 91 90 89 88 87 87 86 84 83 82 84 83 81 82 83 85 90 94 97 99 97 97 101 105
140 141 136 140 173 333 260 269 180 233 273 344 302 80 49 91 127 120 130 136 135 137 139 127 103 98 89 85 64 91 113 127 141 141 144 155 155 151 149 146 143 140 139 136 137 136 134 134 134 135 136 136 132 127 123 115 104 97 99 103 104 104 105 105 100 95 91 90 93 96 95 90 86 85 88 91 91 90 89 87 85 85 85 84 82 80 77 75 77 82 88 92 96 99 101 104 105
145 141 121 106 70 23 264 293 251 259 300 311 281 48 67 127 140 130 136 137 130 133 135 117 121 120 91 69 59 104 123 137 147 149 150 154 154 151 149 148 145 142 138 136 138 136 137 138 138 139 140 138 134 130 122 111 104 107 111 110 107 106 108 107 103 97 92 89 92 93 91 87 85 86 90 92 91 91 92 91 91 89 85 81 80 80 75 73 77 82 84 81 87 96 102 104 107
148 139 113 80 57 13 291 307 287 292 309 270 284 51 95 152 148 133 140 141 128 133 133 125 129 116 96 92 84 99 116 144 150 152 153 154 154 151 149 150 148 144 140 138 139 138 141 142 142 142 141 139 136 131 121 114 115 117 113 111 112 111 112 111 106 100 92 89 90 89 87 87 88 91 91 89 90 92 92 91 91 89 85 79 77 77 74 71 74 84 87 85 89 93 97 101 107
154 129 61 311 41 341 297 307 304 312 344 34 312 286 128 150 153 142 147 148 140 140 134 138 134 104 99 118 104 100 110 144 151 151 153 153 153 151 150 151 150 146 142 142 140 140 145 146 145 144 142 141 139 132 124 122 119 114 112 114 115 115 117 114 106 101 95 90 90 88 86 86 87 89 88 88 90 91 91 90 90 88 81 78 75 72 68 63 67 79 84 85 92 95 98 103 107
158 104 52 326 342 332 301 316 319 304 292 346 305 271 151 148 154 148 144 138 136 134 133 148 146 109 117 109 105 108 128 148 146 146 152 153 153 152 151 153 152 149 145 144 141 142 148 148 148 145 145 143 138 131 126 123 115 112 113 116 116 117 117 110 105 101 98 94 93 91 89 86 86 85 84 84 86 88 89 89 89 86 81 78 76 72 68 66 70 79 82 84 91 97 101 105 108
150 59 20 307 344 337 329 338 329 326 13 183 256 193 155 153 152 146 139 132 133 129 128 133 113 119 126 109 104 116 144 151 144 145 153 153 154 153 153 155 155 151 147 144 141 145 150 149 149 147 146 141 134 130 126 121 115 113 114 117 118 117 113 106 104 101 102 98 93 92 91 89 89 87 83 84 85 85 87 88 86 84 81 79 76 71 69 72 77 80 84 87 92 97 102 105 108
137 64 308 285 349 342 342 336 334 12 45 159 137 135 147 148 139 135 132 131 130 124 129 119 109 122 121 104 106 130 150 152 147 148 153 154 155 154 154 156 156 153 150 148 144 147 149 147 148 147 144 137 133 129 125 120 116 115 115 119 119 116 111 105 103 102 104 100 93 89 89 91 94 92 87 86 85 86 88 87 86 83 80 78 75 70 67 71 77 80 84 88 92 99 104 107 108
98 52 299 331 349 335 329 322 334 32 113 104 106 124 133 135 131 134 131 131 132 128 136 134 130 130 115 104 120 137 148 152 151 150 153 156 156 156 157 157 158 157 153 151 146 146 147 146 147 146 141 134 133 128 124 124 121 118 117 117 117 115 110 107 104 102 102 95 88 84 86 89 91 91 86 85 85 86 88 89 88 84 81 78 74 72 69 69 74 78 82 86 91 98 102 103 103
38 23 351 344 328 311 317 313 327 30 100 68 107 129 127 126 127 136 130 128 135 132 140 149 143 130 109 117 131 142 149 154 154 152 154 156 158 159 159 157 158 158 155 153 149 147 147 148 148 144 139 135 133 129 129 129 124 121 119 118 116 113 110 108 104 101 97 91 86 84 84 84 86 88 85 83 84 85 87 90 90 86 83 79 73 73 72 72 76 80 81 83 86 91 95 97 98
24 2 331 333 324 305 305 310 334 13 87 81 114 122 119 106 118 134 130 127 126 121 133 146 143 122 118 125 139 152 154 159 157 153 155 156 158 160 159 157 157 157 156 155 152 150 148 150 151 145 140 135 132 134 136 132 127 124 120 119 116 112 110 108 106 101 96 93 92 89 86 85 87 88 86 84 83 84 85 88 89 89 88 81 76 75 75 77 82 86 86 85 86 89 92 95 97
239 330 314 310 324 309 281 337 351 14 96 114 125 122 110 97 122 127 125 126 111 123 130 145 147 127 148 153 159 162 158 158 157 154 156 156 157 160 161 158 157 157 155 155 155 154 152 154 155 148 141 138 140 145 143 134 129 126 121 120 116 112 112 111 108 103 99 97 94 91 91 90 90 89 88 88 86 87 88 89 90 92 92 86 82 80 79 81 84 86 87 88 89 91 94 94 94
240 302 314 304 322 350 30 2 353 20 94 119 133 128 114 106 125 118 116 126 124 136 132 147 163 172 168 162 161 163 158 156 157 156 157 157 158 160 162 160 158 158 158 159 158 158 156 158 159 152 144 145 149 151 145 136 132 127 122 120 118 118 117 114 111 106 103 100 95 92 91 91 90 88 87 90 93 95 96 97 96 94 94 92 89 84 82 83 83 83 84 86 88 90 92 92 90
225 274 290 290 296 345 15 6 4 24 98 129 142 143 131 122 123 116 122 127 130 139 119 133 162 153 158 157 159 159 155 156 157 157 157 158 159 160 162 162 162 162 163 164 163 162 160 161 162 155 151 151 153 150 144 138 135 131 126 125 125 124 121 117 115 111 107 102 97 92 91 91 90 89 88 92 96 98 99 100 98 94 92 93 92 87 84 85 86 84 84 84 85 85 86 87 85
196 228 255 275 288 24 26 358 350 350 133 145 153 155 145 137 135 130 127 126 130 127 110 114 110 123 144 150 156 155 154 157 158 159 159 160 161 161 163 164 166 166 167 169 168 166 164 165 164 161 158 154 154 151 145 142 137 134 132 133 133 131 127 122 117 112 108 103 99 96 95 95 92 90 91 95 97 98 98 99 100 96 92 91 91 91 90 90 90 89 88 87 87 87 87 86 84
214 228 264 250 280 342 334 325 322 309 133 145 158 159 153 147 145 145 143 140 137 127 116 116 113 121 136 145 152 154 156 159 161 162 162 163 165 165 166 167 169 170 171 173 173 170 168 169 168 166 164 157 157 155 150 145 142 139 139 139 136 134 130 123 116 112 110 109 107 103 102 100 94 90 93 95 95 97 97 98 100 98 95 92 90 89 89 89 88 88 88 89 90 90 91 90 88
216 221 263 233 302 311 297 316 320 299 143 149 161 159 158 154 151 157 156 151 150 146 142 136 132 136 141 148 154 155 159 162 164 166 166 167 168 169 170 171 172 174 175 176 176 175 172 172 172 171 168 161 159 160 156 149 146 143 143 143 138 135 128 122 120 117 115 115 111 105 104 103 97 94 94 92 91 96 97 97 96 95 94 95 94 86 81 80 81 83 84 85 87 88 89 89 88
200 212 258 245 337 309 297 323 329 275 157 154 158 156 159 162 161 165 159 156 169 172 165 153 148 147 149 154 158 158 161 165 168 169 170 170 170 172 173 174 176 177 177 179 181 180 178 177 176 174 169 164 163 163 161 155 150 147 147 144 140 138 130 128 126 123 121 116 109 103 104 103 100 100 95 91 92 96 99 99 98 97 98 101 103 95 88 83 80 81 80 82 85 85 86 87 87
210 229 262 271 287 295 302 320 323 149 149 153 157 160 159 164 169 173 170 164 179 178 173 161 154 154 156 159 160 161 164 167 171 172 173 173 173 175 176 176 177 179 180 181 183 184 182 181 179 174 168 167 166 164 166 160 153 153 153 147 142 139 135 136 131 126 125 116 110 106 103 98 96 98 96 95 96 98 101 102 101 101 102 103 105 104 101 96 91 88 84 85 83 82 82 82 83
235 247 259 265 271 277 290 304 277 183 160 161 164 162 156 164 174 180 181 141 133 167 167 164 161 159 158 160 163 164 167 170 173 174 176 176 176 177 178 178 178 179 181 183 185 187 185 184 179 171 169 172 168 164 168 163 160 159 157 151 146 142 141 140 133 129 124 115 111 109 103 98 96 97 98 99 99 102 103 102 101 99 99 100 102 103 103 102 98 93 89 89 85 81 81 80 81
231 260 264 269 273 270 279 286 250 206 180 167 159 157 161 174 175 177 185 96 133 163 165 165 160 157 158 161 166 167 169 171 173 176 178 179 180 181 180 181 180 180 183 184 187 188 188 186 178 171 172 176 170 167 170 167 167 164 160 157 150 149 147 142 138 131 122 115 111 109 104 100 101 100 101 102 104 108 107 103 99 97 99 100 100 101 102 103 100 97 93 91 89 85 83 81 81
222 255 268 275 279 278 283 280 223 194 176 158 154 159 169 174 160 170 183 137 146 164 165 163 157 157 162 165 167 170 172 173 174 176 179 182 182 183 183 182 182 184 185 185 187 189 190 186 180 175 176 179 173 172 175 174 171 164 162 162 157 155 153 148 143 132 122 117 113 110 109 106 105 103 103 106 109 111 108 102 95 95 101 102 101 99 101 103 102 100 96 92 89 87 84 82 80
206 243 267 278 284 289 291 273 208 182 166 160 159 165 168 165 146 165 177 152 152 162 163 162 159 160 166 168 170 172 174 175 176 177 179 181 183 185 186 185 186 186 186 186 187 188 190 188 184 180 179 180 178 178 180 179 173 167 166 165 163 161 158 154 145 135 128 123 118 117 115 113 112 109 108 110 113 113 109 103 98 99 103 104 102 99 103 107 106 103 98 94 90 87 84 81 79
224 256 274 276 283 292 294 258 192 171 166 170 163 161 166 166 178 180 171 162 157 158 160 162 163 166 169 171 173 175 177 178 179 179 179 182 185 187 189 190 190 188 188 188 187 188 189 189 186 185 184 183 183 183 183 182 175 171 170 167 166 165 161 155 147 141 136 130 126 123 118 117 117 116 114 113 116 119 118 114 110 109 109 110 105 103 111 112 110 109 104 97 91 87 81 77 75
291 286 290 277 279 294 305 194 168 158 163 175 153 142 161 169 203 197 165 164 162 159 160 164 167 171 173 173 175 178 180 180 181 182 184 187 189 191 193 194 192 192 192 190 189 189 189 189 189 189 189 187 186 186 186 184 178 174 172 168 167 167 163 156 151 146 141 137 133 128 123 120 120 121 118 117 120 122 124 127 124 121 117 117 115 115 121 121 117 116 111 101 92 85 78 73 71
292 287 295 289 294 0 78 128 160 160 157 168 153 140 181 192 200 176 163 163 164 163 163 168 172 175 176 176 178 182 182 182 185 188 191 193 193 194 195 196 195 195 194 191 191 191 189 190 190 191 192 190 189 189 188 186 181 178 173 169 169 168 163 157 153 150 145 141 137 134 129 126 127 126 122 121 126 129 129 130 132 133 131 132 132 132 133 134 129 124 119 106 93 86 78 73 71
281 267 286 296 301 50 88 123 157 157 154 169 178 177 185 197 193 160 163 166 165 168 168 172 177 178 179 179 181 185 185 186 189 192 193 196 197 195 196 198 198 198 196 193 192 192 192 191 192 192 193 191 191 190 188 186 184 181 175 171 171 168 163 159 155 153 149 147 144 139 133 133 135 132 129 128 131 142 147 148 158 154 143 148 155 164 163 158 157 155 140 116 98 89 81 76 72
287 248 246 293 295 81 90 144 162 152 160 176 199 257 86 176 185 166 166 169 167 172 174 177 180 181 182 183 186 187 188 190 193 195 197 199 198 197 199 200 201 202 200 196 192 193 194 193 193 194 193 192 192 192 188 186 185 182 179 175 173 169 165 163 159 157 155 154 149 139 133 135 137 136 134 131 129 139 154 166 178 174 146 146 161 180 190 188 187 198 193 157 116 97 85 77 70
355 238 211 206 272 82 97 155 176 162 163 184 205 253 41 75 173 165 168 174 171 174 177 181 184 184 185 186 189 190 191 194 196 199 201 201 201 201 203 203 203 203 202 199 195 194 196 196 196 196 195 193 194 196 191 188 186 184 181 178 176 172 169 167 164 162 160 160 153 138 133 133 135 140 138 134 134 144 161 171 173 169 156 152 161 178 192 198 204 222 219 204 180 122 88 72 61
167 240 226 163 244 256 108 148 182 161 149 185 215 266 27 34 159 163 167 177 175 175 177 182 184 186 187 187 190 192 193 195 197 202 203 202 203 203 204 204 203 204 203 202 198 197 198 198 197 198 198 196 196 198 195 191 188 186 184 182 180 176 173 171 170 168 163 161 153 139 135 135 134 138 139 136 138 151 167 177 169 165 173 174 169 177 194 202 212 222 219 212 202 169 98 62 54
165 211 218 109 257 264 139 145 173 171 161 188 210 243 288 59 144 167 171 179 180 179 180 183 185 186 188 189 191 194 193 194 196 201 204 203 203 203 204 205 204 205 205 204 202 201 201 201 199 199 199 199 198 198 198 195 191 188 186 186 186 183 179 178 178 175 168 162 153 146 141 137 133 134 140 140 141 154 172 186 175 167 183 188 183 178 185 196 200 207 210 210 202 182 132 58 50
171 186 195 162 199 233 277 103 159 174 182 192 196 226 242 197 147 172 180 183 185 184 183 185 187 187 188 190 192 194 193 195 198 202 204 204 203 203 204 205 206 207 208 208 206 204 204 205 203 201 201 201 199 198 199 197 194 191 189 189 190 189 187 186 186 183 176 168 160 157 150 141 134 129 134 143 155 170 180 187 172 162 174 187 195 187 160 170 180 190 201 201 194 187 176 122 40
150 145 160 135 162 202 274 349 170 180 185 196 199 221 237 219 174 181 186 186 191 191 188 189 193 194 192 193 195 195 196 197 200 204 206 207 207 205 205 205 206 207 209 211 210 208 207 207 206 205 204 202 201 199 198 198 196 195 192 192 194 193 193 192 192 190 187 181 171 165 159 150 142 133 128 137 162 172 173 169 160 158 167 178 193 193 174 162 170 185 195 194 188 192 200 234 280
118 110 112 77 314 202 180 353 204 191 201 210 209 227 243 229 192 189 187 184 193 195 192 193 198 201 200 198 197 197 199 198 198 202 206 210 211 210 209 206 205 206 209 212 213 212 210 209 209 208 206 204 203 201 199 199 198 197 196 195 196 197 197 196 196 195 193 190 180 169 162 158 153 143 128 135 165 171 170 174 163 159 180 188 186 189 177 165 177 189 190 191 195 201 220 255 270
183 180 151 105 229 248 35 4 342 203 216 223 208 233 250 241 214 191 185 186 196 197 194 195 197 201 203 201 198 197 198 197 195 199 205 210 213 215 214 211 210 209 209 210 212 214 213 213 212 211 210 208 206 204 201 202 203 202 201 199 198 199 200 200 201 201 195 190 184 175 168 165 167 164 143 146 172 176 175 195 202 180 204 206 193 190 185 180 188 190 186 182 192 205 246 276 268
212 213 231 211 195 276 52 20 358 194 217 265 194 231 251 247 229 197 192 196 201 200 199 199 195 195 200 202 199 197 196 195 195 199 203 208 212 216 218 217 216 215 213 210 209 212 215 215 214 213 213 211 210 208 205 205 207 207 206 205 203 203 204 204 205 204 197 190 189 186 181 178 184 189 170 162 177 184 183 189 225 215 211 211 206 201 203 202 194 192 189 176 170 183 224 258 270
208 208 227 206 144 250 165 63 37 168 223 302 191 245 260 255 243 215 208 208 207 205 205 205 197 196 199 199 200 198 196 196 196 198 201 204 208 214 219 220 220 219 218 215 211 211 214 216 215 214 213 213 213 211 209 208 209 210 210 210 209 208 208 207 207 206 201 197 199 198 193 188 196 199 182 172 179 188 194 202 217 209 197 200 200 190 200 208 201 197 192 185 174 165 173 220 258
205 217 233 229 190 238 239 34 8 205 226 259 254 262 262 247 248 235 215 212 212 207 207 208 203 200 199 198 201 201 200 199 198 198 200 201 205 213 220 222 222 222 220 218 216 214 214 215 215 214 214 214 214 213 212 211 209 210 210 209 209 210 209 209 210 207 204 205 207 206 200 194 200 200 186 180 183 189 199 210 211 201 192 190 181 175 191 205 205 203 199 196 193 192 206 219 256
210 215 227 241 230 227 229 350 321 256 204 188 237 252 184 127 261 272 224 209 214 208 205 209 205 199 198 200 203 202 203 203 201 200 199 200 205 214 221 223 223 225 224 221 220 218 217 216 216 215 214 214 215 215 214 214 213 212 212 211 210 210 209 209 211 210 208 209 210 208 205 195 195 198 189 183 186 189 198 208 210 202 199 198 194 191 196 201 206 208 207 207 208 210 219 235 270
225 200 210 229 228 222 222 232 271 258 117 135 239 263 247 97 32 353 320 229 219 212 212 214 209 203 202 204 204 202 203 204 203 203 201 201 205 213 220 223 223 225 226 225 223 222 220 218 217 216 216 215 216 216 214 215 216 216 216 216 216 215 213 212 212 212 210 209 209 207 202 192 190 195 191 186 186 190 199 208 210 205 202 206 203 194 195 203 214 217 214 214 218 222 230 247 276
219 149 184 213 216 217 216 217 237 271 333 247 212 252 267 81 24 6 349 282 243 233 234 231 225 221 214 209 207 204 203 202 202 203 203 203 207 214 220 223 224 226 228 228 226 225 223 221 219 218 219 218 217 218 216 216 218 219 218 219 220 220 218 217 215 212 209 208 211 207 196 188 188 191 191 189 187 193 202 208 210 206 203 207 202 192 197 211 221 222 218 219 223 229 237 249 266
222 150 172 207 217 217 211 217 228 253 292 243 184 200 233 71 15 10 20 21 6 333 295 262 246 240 233 226 217 210 207 204 203 204 205 206 209 216 221 224 226 226 228 229 228 227 226 224 223 222 222 221 220 220 219 218 219 222 222 221 223 222 221 220 218 216 213 210 214 211 197 190 193 194 193 192 191 196 203 206 208 206 204 206 201 197 202 211 220 221 218 223 229 234 242 249 259
182 136 133 135 166 192 198 211 196 156 249 242 177 190 212 64 27 12 19 16 3 345 326 298 264 245 237 236 229 220 215 209 206 207 208 210 213 218 221 225 228 227 228 231 230 230 229 228 227 225 224 223 223 223 222 221 220 222 224 225 226 226 224 221 219 219 217 214 216 214 204 198 199 200 200 200 197 198 203 205 206 207 207 203 196 199 207 211 218 223 221 224 231 238 246 253 262
131 141 160 143 109 111 130 139 152 183 220 240 188 191 216 59 40 21 15 3 350 337 336 334 308 258 232 227 225 225 221 212 208 210 212 214 217 219 220 224 228 227 228 231 230 230 230 230 229 228 227 226 226 225 226 225 223 222 224 226 227 228 227 224 221 220 218 217 218 217 210 204 204 204 206 207 204 202 205 207 208 210 210 204 196 200 208 211 213 218 220 221 229 237 244 254 264
150 168 184 188 173 169 182 149 178 208 201 257 130 131 95 62 45 21 10 1 356 349 344 343 340 319 248 220 214 215 215 210 207 209 214 216 215 216 219 223 226 226 227 230 230 230 231 231 230 230 230 229 228 228 228 229 227 225 225 226 228 229 228 228 225 223 220 218 219 219 214 209 208 207 208 210 208 207 209 210 212 214 212 207 203 204 209 212 212 213 217 221 226 229 235 249 261
183 181 176 181 172 176 197 187 196 208 164 72 132 118 80 79 65 23 11 7 3 358 353 347 347 349 335 255 219 210 207 206 205 207 213 219 219 217 218 222 226 226 227 229 229 230 231 231 231 231 231 230 230 230 229 230 230 228 226 225 227 229 229 229 228 227 225 222 222 220 216 213 212 211 210 211 210 213 215 215 217 219 217 213 211 212 214 215 213 214 215 217 218 219 226 233 241
195 189 186 188 173 175 188 175 180 201 152 99 177 160 119 117 72 28 22 14 6 4 3 1 359 358 359 351 243 214 210 208 207 206 212 221 224 222 219 222 226 228 228 229 229 230 231 232 231 231 232 232 232 232 231 230 231 231 229 226 226 229 230 229 229 229 228 226 225 223 220 218 218 217 215 213 215 220 222 220 220 222 222 220 218 217 219 220 219 218 216 215 217 218 221 220 220
188 191 191 198 201 189 183 178 179 177 139 112 162 196 146 137 89 42 35 22 15 15 13 14 16 12 13 22 31 232 224 217 213 211 213 221 227 226 221 223 228 228 228 229 229 230 232 232 232 231 231 231 232 233 232 231 231 231 230 227 226 228 230 230 230 230 230 229 228 227 224 222 222 221 220 218 220 225 227 226 224 223 224 225 223 220 222 227 226 223 221 221 223 223 219 217 221
161 183 193 200 221 211 144 173 178 160 134 114 124 105 96 121 108 60 40 27 21 20 19 20 19 15 19 26 25 17 348 250 226 220 217 220 226 228 225 225 228 228 228 229 229 231 232 232 233 232 231 231 231 232 232 231 231 231 230 228 226 227 229 230 230 230 231 231 230 230 228 226 224 223 222 223 226 228 229 229 227 224 226 227 226 222 223 230 232 228 227 227 230 232 230 229 231
153 171 188 175 341 280 142 135 45 201 173 143 129 120 107 139 124 49 31 27 23 21 23 22 17 15 22 23 16 10 1 327 258 235 223 219 222 226 228 228 228 227 227 228 230 233 234 233 234 233 232 231 231 231 231 231 231 231 231 230 228 228 228 230 231 230 230 232 232 232 231 228 225 223 223 225 229 232 230 228 228 227 227 228 229 227 224 229 233 232 231 230 232 236 238 240 241
171 172 162 110 62 320 225 159 155 191 185 143 110 125 114 167 149 32 23 22 20 19 21 21 19 18 22 20 13 10 7 356 299 251 236 225 221 223 228 229 228 228 229 230 232 233 234 235 235 234 233 232 231 231 231 232 232 231 232 231 230 229 229 230 232 231 232 233 233 233 232 229 225 222 222 225 229 233 232 229 228 228 230 231 232 232 229 229 232 234 233 232 233 236 239 240 240
39 135 113 109 185 188 184 180 178 187 180 127 114 121 82 45 3 4 18 19 15 17 17 18 20 20 19 17 13 11 13 15 3 294 249 236 222 218 223 225 227 232 232 232 233 233 233 234 235 236 236 236 234 232 232 232 232 232 233 233 232 232 230 231 233 233 232 233 233 233 231 230 228 224 222 225 228 231 233 233 232 232 233 233 235 236 234 233 235 236 236 236 237 238 239 237 234
55 120 85 12 276 190 182 203 191 192 176 139 147 158 98 51 343 345 28 26 15 18 18 18 22 20 18 16 13 13 14 18 20 20 339 234 222 217 221 221 224 233 236 234 233 231 232 233 233 234 236 237 236 235 234 234 233 232 233 234 234 233 233 233 233 234 233 232 232 232 232 232 230 227 225 226 228 229 230 233 235 237 237 235 236 238 238 238 238 239 240 241 243 243 243 240 238
30 90 71 28 338 262 151 84 12 238 181 155 164 161 108 52 343 7 45 33 18 22 19 19 23 21 20 18 15 15 16 19 25 33 50 104 190 208 220 222 222 228 235 236 232 229 230 231 233 234 234 236 236 235 236 236 235 235 234 235 235 235 235 234 234 235 235 234 233 232 232 232 231 230 229 229 230 229 229 231 234 237 239 237 237 237 239 240 242 242 242 243 245 246 248 247 246
39 52 36 357 337 208 184 175 121 19 143 166 170 149 104 33 356 25 45 34 23 22 18 22 24 19 20 19 16 18 19 21 28 36 50 72 120 170 197 212 215 220 230 235 232 230 230 229 230 232 234 237 237 237 239 238 237 238 237 237 237 237 237 236 236 236 236 236 235 233 233 232 232 231 230 231 232 231 229 229 231 235 237 237 236 236 237 239 242 245 245 245 246 248 251 252 253